Tracking 20942 objects as of 9-Jul-2020
HD Live streaming from Space Station
objects crossing your sky now

COSMOS 962

Track COSMOS 962 now!
10-day predictions
COSMOS 962 is classified as:


NORAD ID: 10459
Int'l Code: 1977-107A
Perigee: 968.3 km
Apogee: 1,011.6 km
Inclination: 83.0 °
Period: 104.8 minutes
Semi major axis: 7360 km
RCS: 1.6429 m2 (large)
Launch date: October 28, 1977
Source: Commonwealth of Independent States (former USSR) (CIS)
Launch site: PLESETSK MISSILE AND SPACE COMPLEX (PKMTR)
aabbcc
Your satellite tracking list
Your tracking list is empty




NASA's NSSDC Master Catalog

Two Line Element Set (TLE):
1 10459U 77107A   20191.44847396 +.00000039 +00000-0 +24333-4 0  9990
2 10459 082.9517 303.7235 0029423 043.1661 025.7176 13.74690425141417
Source of the keplerian elements: AFSPC